#timestamp,LO_Frequency,Hit,StdDev 
1701093615.2,286046996.5,N
1701093635.1,286046996.9,N
1701093636.0,286046996.9,N
1701093655.8,286046996.5,N
1701093675.7,286046996.5,N
1701093695.5,286046998.3,N
1701093715.3,286046998.3,N
1701093735.2,286046998.9,N
1701093755.0,286046998.4,N
1701093755.9,286046998.4,N
1701093775.8,286047000.9,N
1701093795.6,286047000.2,N
1701093815.4,286047000.6,N
1701093835.3,286047000.1,N
1701093855.1,286047002.4,N
1701093875.9,286047002.3,N
1701093895.7,286047002.4,N
1701093915.5,286047000.2,N
1701093935.4,286047000.0,N
1701093955.2,286047000.5,N
1701093975.0,286046999.7,N
1701093975.9,286046999.7,N
1701093995.8,286047002.4,N
1701094015.6,286047002.3,N
1701094035.5,286046999.8,N
1701094055.3,286047001.1,N
1701094075.1,286047000.6,N
1701094095.9,286047000.6,N
1701094115.7,286047001.0,N
1701094135.5,286047000.8,N
1701094155.4,286047000.6,N
1701094175.2,286047000.3,N
1701094195.1,286047001.0,N
1701094196.0,286047001.0,N
1701094215.8,286047001.1,N
1701094235.6,286046999.0,N
1701094255.5,286046998.5,N
1701094275.3,286047001.0,N
1701094295.1,286046999.7,N
1701094315.9,286047000.9,N
1701094335.7,286047000.5,N
1701094355.6,286047000.8,N
1701094375.4,286046999.9,N
1701094395.2,286047001.2,N
1701094415.1,286047000.4,N
1701094416.0,286047000.4,N
1701094435.8,286047000.5,N
1701094455.6,286047002.7,Y
1701094475.5,286047000.9,P
1701094495.3,286047002.0,P
1701094515.2,286047002.0,P
1701094535.9,286047002.6,Y
1701094555.7,286047000.4,P
1701094575.6,286046999.9,N
1701094595.4,286047001.0,N
1701094615.2,286046999.0,N
1701094635.1,286046998.6,N
1701094636.0,286046998.6,N
1701094655.8,286046998.4,N
1701094675.7,286046999.4,N
1701094695.5,286046998.2,N
1701094715.3,286047000.7,N
1701094735.2,286047002.3,N
1701094755.0,286047002.5,N
1701094755.9,286047002.5,N
1701094775.8,286047003.8,N
1701094795.6,286047003.3,N
1701094815.4,286047003.7,N
1701094835.3,286047003.6,N
1701094855.1,286047003.6,N
1701094875.8,286047003.2,N
1701094895.7,286047003.4,N
1701094915.5,286047005.4,N
1701094935.4,286047007.1,Y
1701094955.2,286047003.3,P
1701094975.0,286047003.6,P
1701094975.9,286047003.6,P
1701094995.8,286047003.7,Y
1701095015.6,286046999.9,P
1701095035.5,286046999.8,N
1701095055.3,286047002.2,N
1701095075.1,286047000.2,N
1701095095.9,286047002.8,N
1701095115.7,286046999.7,N
1701095135.5,286047002.2,N
1701095155.4,286047002.8,N
1701095175.2,286047001.0,N
1701095195.1,286047000.5,N
1701095196.0,286047000.5,N
1701095215.8,286047002.7,N
1701095235.6,286047002.6,N
1701095255.5,286047002.2,N
1701095275.3,286047000.2,N
1701095295.2,286046999.7,N
1701095315.9,286046999.9,N
1701095335.7,286047000.3,N
1701095355.6,286047000.1,N
1701095375.4,286047002.3,N
1701095395.2,286047000.2,N
1701095415.1,286047000.7,N
1701095435.8,286046999.8,N
1701095455.7,286046999.9,N
1701095475.5,286047000.2,N
1701095495.4,286047000.9,N
1701095515.2,286046998.6,N
1701095535.0,286047000.3,N
1701095535.9,286047000.3,N
1701095555.8,286047000.3,N
1701095575.6,286047000.8,N
1701095595.4,286047000.0,N
1701095615.3,286047000.1,N
1701095635.1,286047002.7,N
1701095655.9,286046999.8,N
1701095675.7,286047001.8,N
1701095695.5,286047001.7,N
1701095715.4,286047002.6,N
1701095735.2,286047004.4,Y
1701095755.1,286047002.0,P
1701095756.0,286047002.0,P
1701095775.8,286047002.3,P
1701095795.7,286047002.7,Y
1701095815.5,286046998.6,P
1701095835.3,286047000.5,N
1701095855.2,286046999.9,N
1701095875.0,286047002.7,N
1701095875.9,286047002.7,N
1701095895.8,286047002.8,N
1701095915.6,286047002.1,N
1701095935.4,286047001.5,N
1701095955.3,286047002.2,N
1701095975.1,286047000.1,N
1701095995.9,286047000.7,N
1701096015.7,286047000.7,N
1701096035.5,286047001.1,N
1701096055.4,286046999.8,N
1701096075.2,286047002.8,N
1701096095.0,286046999.7,N
1701096095.9,286046999.7,N
1701096115.8,286046999.9,N
1701096135.6,286047002.5,N
1701096155.5,286047002.0,N
1701096175.3,286047002.3,N
1701096195.1,286047000.2,N
1701096215.9,286046999.7,N
1701096235.7,286047000.4,N
1701096255.5,286047002.5,N
1701096275.4,286047002.0,N
1701096295.2,286047001.7,N
1701096315.1,286047002.7,N
1701096316.0,286047002.7,N
1701096335.8,286047000.2,N
1701096355.6,286047000.7,N
1701096375.5,286047000.3,N
1701096395.3,286046999.7,N
1701096415.1,286047002.4,N
1701096435.9,286047000.1,N
1701096455.7,286047002.4,N
1701096475.6,286047001.6,N
1701096495.4,286047002.7,N
1701096515.2,286046999.9,N
1701096535.1,286046999.9,N
1701096536.0,286046999.9,N
1701096555.8,286047000.7,N
1701096575.6,286046998.3,N
1701096595.5,286047000.3,N
1701096615.3,286047000.5,N
1701096635.2,286046998.2,N
1701096655.9,286047000.4,N
1701096675.7,286046998.3,N
1701096695.6,286047001.1,N
1701096715.4,286047001.0,N
1701096735.2,286047001.2,N
1701096755.1,286046998.4,N
1701096756.0,286046998.4,N
1701096775.8,286047001.1,N
1701096795.7,286047000.7,N
1701096815.5,286047000.0,N
1701096835.3,286047002.0,N
1701096855.2,286047002.0,N
1701096875.0,286047002.6,N
1701096875.9,286047002.6,N
1701096895.8,286047000.4,N
1701096915.6,286047002.6,N
1701096935.4,286047001.7,N
1701096955.3,286047001.9,N
1701096975.1,286047004.0,N
1701096995.8,286047004.2,N
1701097015.7,286047001.7,N
1701097035.5,286047002.5,N
1701097055.4,286047002.6,N
1701097075.2,286046999.7,N
1701097095.0,286047001.9,N
1701097095.9,286047001.9,N
1701097115.8,286047000.7,N
1701097135.6,286046999.9,N
1701097155.5,286047000.6,N
1701097175.3,286046999.7,N
1701097195.1,286047002.7,N
